Terminal Aerodrome Forecast
Issued by NWS Cleveland, OH

Home | Current Version | Previous Version | Graphics & Text | Print | Product List | Glossary On
Versions: 1 2 3 4 5 6 7 8 9 10 11 12 13 14 15 16 17 18 19 20 21 22 23 24 25 26 27 28 29 30 31
000
FTUS41 KCLE 262300
TAFCLE
TAF
KCLE 262335Z 2700/2806 27010KT P6SM SCT025 OVC035
     FM270300 31009KT P6SM BKN040
     FM271100 32008KT P6SM BKN019 OVC025
     FM272000 34014KT P6SM -SN OVC030
     FM280000 35008KT P6SM BKN035=

USA.gov is the U.S. government's official web portal to all federal, state and local government web resources and services.